Home   Weather   Oshawa   Past weeks
Flag for Canada

Past Weather in Oshawa, Ontario, Canada — Yesterday and Last 2 Weeks

Now
57 °F

Light rain. Cloudy.


Feels Like: 55 °F
Forecast: 57 / 49 °F
Wind: 9 mph from South

Location: Oshawa

Current Time: Oct 22, 2019 at 12:48:07 pm

Latest Report: Oct 22, 2019 at 12:16 pm


Visibility: 9 mi

Pressure: 29.74 "Hg

Humidity: 100%

Dew Point: 57 °F

Location of OshawaLocation

Past Weather in Oshawa — Graph

°F

Oshawa Temperature Yesterday

Maximum temperature yesterday: 61 °F (at 12:00 pm)
Minimum temperature yesterday: 39 °F (at 6:00 am)
Average temperature yesterday: 52 °F

High & Low Weather Summary for the Past Weeks

 TemperatureHumidityPressure
High64 °F (Oct 7, 1:00 pm)100% (Oct 8, 12:00 am)30.38 "Hg (Oct 8, 12:00 am)
Low30 °F (Oct 15, 4:00 am)32% (Oct 11, 5:00 pm)29.41 "Hg (Oct 17, 4:10 am)
Average50 °F78%29.96 "Hg
* Reported Oct 7 11:00 am — Oct 22 11:34 am, Oshawa. Weather by CustomWeather, © 2019

Note: Actual official high and low records may vary slightly from our data, if they occured in-between our weather recording intervals... More about our weather records

Advertising

Oshawa Weather History for the Previous 24 Hours

Scroll right to see more
 ConditionsComfort  
Time TempWeatherWind HumidityBarometerVisibility
11:34 am
Tue, Oct 22
57 °FLight rain. Fog.7 mph100%29.76 "Hg6 mi
11:00 am55 °FLight rain. Fog.8 mph100%29.75 "Hg3 mi
10:00 am55 °FLight rain. Fog.7 mph100%29.75 "Hg3 mi
9:54 am55 °FLight rain. Fog.8 mph100%29.75 "Hg3 mi
9:31 am55 °FLight rain. Fog.10 mph100%29.77 "Hg2 mi
9:10 am55 °FRain. Fog.8 mph100%29.76 "Hg2 mi
8:00 am55 °FLight rain. Overcast.10 mph100%29.74 "Hg9 mi
7:57 am55 °FLight rain. Overcast.9 mph100%29.74 "Hg9 mi
7:00 am55 °FOvercast.9 mph100%29.76 "Hg9 mi
6:54 am55 °FOvercast.9 mph100%29.76 "Hg9 mi
6:29 am54 °FLight rain. Fog.8 mph100%29.77 "Hg6 mi
6:00 am54 °FLight rain. Fog.10 mph100%29.78 "Hg3 mi
5:52 am55 °FLight rain. Fog.7 mph94%29.78 "Hg4 mi
5:23 am54 °FLight rain. Fog.7 mph100%29.77 "Hg6 mi
5:00 am54 °FLight rain. Mostly cloudy.8 mph100%29.78 "Hg9 mi
4:35 am54 °FLight rain. Fog.5 mph100%29.78 "Hg6 mi
4:12 am54 °FLight rain. Fog.2 mph100%29.80 "Hg5 mi
4:00 am55 °FLight rain. Overcast.5 mph94%29.78 "Hg9 mi
3:35 am54 °FLight rain. Fog.7 mph100%29.79 "Hg6 mi
3:23 am54 °FRain. Fog.7 mph100%29.79 "Hg5 mi
3:01 am55 °FRain. Fog.8 mph94%29.80 "Hg5 mi
2:04 am55 °FLight rain. Overcast.15 mph82%29.78 "Hg9 mi
2:02 am57 °FOvercast.17 mph77%29.79 "Hg9 mi
1:00 am55 °FMostly cloudy.16 mph82%29.79 "Hg9 mi
12:54 am55 °FOvercast.15 mph82%29.79 "Hg9 mi
12:39 am57 °FLight rain. Overcast.17 mph77%29.81 "Hg9 mi
12:05 am59 °FThundershowers. Mostly cloudy.20 mph68%29.81 "Hg9 mi
11:00 pm
Mon, Oct 21
59 °FOvercast.23 mph68%29.83 "Hg9 mi
10:00 pm61 °FMostly cloudy.23 mph55%29.87 "Hg9 mi
9:00 pm61 °FMostly cloudy.17 mph55%29.89 "Hg9 mi
8:00 pm59 °FMostly cloudy.15 mph59%29.91 "Hg9 mi
7:00 pm57 °FOvercast.14 mph67%29.94 "Hg9 mi
6:00 pm57 °FPartly sunny.15 mph63%29.95 "Hg9 mi
5:00 pm59 °FPassing clouds.17 mph59%29.97 "Hg9 mi
4:00 pm59 °FPassing clouds.15 mph68%29.98 "Hg9 mi
3:00 pm57 °FScattered clouds.14 mph77%30.02 "Hg9 mi
2:00 pm55 °FScattered clouds.12 mph82%30.05 "Hg9 mi
1:00 pm57 °FSunny.16 mph72%30.07 "Hg9 mi
12:00 pm61 °FSunny.16 mph63%30.07 "Hg9 mi
Weather by CustomWeather, © 2019

See weather overview